Probability
13 32 55 58 55 58 55 48 45 42 39 35 35 35 32 29 23 19 23 19 16 16 13 13 13 10 13 10 10 6 6 3 6 6 6 3 6 6 3 3 3 3 3
3 29 52 52 55 61 58 52 48 42 39 32 29 32 29 26 16 16 16 13 13 13 13 10 10 6 6 10 6 6 6 6 6 6 6 3 6 6 3 6 6 0 3
10 39 52 52 55 61 58 52 45 42 39 32 32 26 23 19 19 19 16 13 13 13 10 10 10 3 6 6 6 6 6 6 3 6 6 0 0 3 3 3 3 3 3
16 32 39 52 55 61 58 55 45 42 42 35 29 29 26 23 19 19 16 16 16 13 13 10 3 3 3 3 6 6 6 6 3 3 0 0 0 3 3 3 3 3 3
13 26 39 55 61 58 58 58 45 42 42 32 29 26 26 16 16 16 13 16 16 16 16 10 6 3 3 3 10 6 6 6 3 0 0 0 0 3 3 3 3 3 3
16 16 39 52 61 58 58 48 45 42 42 32 26 26 19 13 13 16 13 13 13 16 13 10 10 3 3 6 3 3 3 6 0 0 0 0 0 3 3 3 3 3 3
13 19 35 42 55 61 58 52 45 39 39 32 26 19 16 10 10 13 13 13 10 10 10 10 3 3 3 3 3 3 3 3 0 0 0 0 0 3 3 3 3 3 3
13 23 35 42 48 55 58 52 48 39 32 32 29 19 16 10 10 10 10 10 10 10 10 10 3 3 3 3 3 3 3 3 0 0 0 0 0 3 3 3 3 3 3
19 26 29 35 48 52 48 48 45 39 32 29 23 29 23 16 13 10 10 10 10 10 10 10 6 3 3 3 3 3 3 0 0 0 0 0 0 0 3 3 3 3 3
19 29 29 32 26 26 23 32 35 32 29 29 19 16 10 10 13 13 10 10 10 10 10 10 3 0 3 3 3 0 0 0 0 0 0 0 0 0 3 3 3 3 3
16 23 19 26 23 23 16 13 13 19 23 19 13 10 6 3 3 3 10 10 10 10 10 10 3 0 0 0 0 0 0 0 0 0 0 0 0 0 0 3 3 3 3
13 23 23 19 16 13 16 13 13 13 10 6 0 3 3 3 0 0 0 3 10 3 3 10 3 0 0 0 0 0 0 0 0 0 0 0 0 0 0 3 3 3 3
6 10 16 16 16 13 10 3 3 6 6 0 0 0 0 0 0 0 0 0 3 0 0 0 0 0 0 0 0 0 0 0 0 0 0 0 0 0 0 0 0 3 3
10 13 13 13 10 6 6 3 0 6 6 0 0 0 0 0 0 0 0 0 0 0 0 0 0 0 0 0 0 0 0 0 0 0 0 0 0 0 0 0 0 3 3
3 6 13 13 10 6 3 3 0 0 0 0 0 0 0 0 0 0 0 0 0 0 0 0 0 0 0 0 0 0 0 0 0 0 0 0 0 0 0 0 0 3 0
3 6 6 6 10 10 3 3 0 0 0 0 0 0 0 0 0 0 0 0 0 0 0 0 0 0 0 0 0 0 0 0 0 0 0 0 0 0 0 0 0 3 3
0 6 3 6 3 6 3 6 0 0 0 0 0 0 0 0 0 0 0 0 0 0 0 0 0 0 0 0 0 0 0 0 0 0 0 0 0 0 0 0 0 3 3
3 0 3 6 3 3 0 0 0 3 0 0 0 0 0 0 0 0 0 0 0 0 0 0 0 0 0 0 0 0 0 0 0 0 0 0 0 0 0 0 0 0 3
3 3 3 3 3 3 0 0 0 3 0 0 0 0 0 0 0 0 0 0 0 0 0 0 0 0 0 0 0 0 0 0 0 0 0 0 0 0 0 0 0 0 0
3 3 0 0 3 3 0 0 0 0 0 0 0 0 0 0 0 0 0 0 0 0 0 0 0 0 0 0 0 0 0 0 0 0 0 0 0 0 0 0 0 0 0
0 0 0 0 3 3 0 0 0 0 0 0 0 0 0 0 0 0 0 0 0 0 0 0 0 0 0 0 0 0 0 0 0 0 0 0 0 0 0 0 0 0 0
0 0 0 0 0 3 3 0 0 0 0 0 0 0 0 0 0 0 0 0 0 0 0 0 0 0 0 0 0 0 0 0 0 0 0 0 0 0 0 0 0 0 0
0 0 0 0 0 0 0 0 0 0 0 0 0 0 0 0 0 0 0 0 0 0 0 0 0 0 0 0 0 0 0 0 0 0 0 0 0 0 0 0 0 0 0
0 0 0 3 0 0 0 0 0 0 0 0 0 0 0 0 0 0 0 0 0 0 0 0 0 0 0 0 0 0 0 0 0 0 0 0 0 0 0 0 0 0 0
0 0 0 0 0 0 0 0 0 0 0 0 0 0 0 0 0 0 0 0 0 0 0 0 0 0 0 0 0 0 0 0 0 0 0 0 0 0 0 0 0 0 0
0 0 0 0 0 0 0 0 0 0 0 0 0 0 0 0 0 0 0 0 0 0 0 0 0 0 0 0 0 0 0 0 0 0 0 0 0 0 0 0 0 0 0
Height
5841 5842 5843 5843 5844 5845 5846 5846 5847 5848 5849 5849 5850 5851 5851 5852 5852 5853 5854 5854 5855 5855 5856 5856 5857 5857 5858 5858 5858 5858 5858 5858 5858 5858 5858 5858 5857 5857 5856 5856 5855 5854 5854
5839 5840 5841 5841 5842 5843 5844 5844 5845 5846 5847 5847 5848 5849 5850 5850 5851 5852 5852 5853 5854 5854 5855 5855 5856 5856 5857 5857 5857 5857 5857 5857 5857 5857 5857 5856 5856 5855 5855 5855 5854 5853 5852
5836 5837 5838 5839 5840 5840 5841 5842 5843 5844 5844 5845 5846 5847 5848 5848 5849 5850 5850 5851 5852 5852 5853 5854 5854 5855 5855 5855 5856 5856 5856 5856 5856 5855 5855 5855 5854 5854 5853 5853 5852 5852 5851
5833 5834 5835 5836 5836 5837 5838 5839 5840 5841 5842 5842 5843 5844 5845 5846 5847 5848 5848 5849 5850 5850 5851 5852 5853 5853 5854 5854 5854 5854 5854 5854 5854 5854 5853 5853 5853 5852 5851 5851 5850 5850 5849
5829 5830 5831 5832 5833 5834 5835 5836 5837 5838 5838 5839 5840 5841 5842 5843 5844 5845 5846 5847 5847 5848 5849 5850 5850 5851 5852 5852 5852 5852 5852 5852 5852 5852 5852 5851 5851 5850 5849 5849 5848 5847 5846
5825 5826 5827 5828 5829 5830 5831 5832 5833 5834 5835 5836 5837 5838 5839 5840 5841 5842 5843 5844 5844 5845 5846 5847 5848 5848 5849 5849 5850 5850 5850 5850 5850 5850 5849 5849 5848 5848 5847 5846 5845 5844 5843
5820 5821 5822 5824 5824 5825 5826 5827 5828 5829 5830 5831 5833 5834 5835 5836 5837 5838 5839 5840 5841 5842 5843 5844 5845 5845 5846 5847 5847 5847 5847 5847 5847 5847 5847 5846 5846 5845 5844 5843 5842 5841 5840
5815 5816 5817 5818 5819 5820 5821 5822 5824 5825 5826 5827 5828 5829 5830 5831 5833 5834 5835 5836 5837 5839 5840 5840 5841 5842 5842 5843 5844 5844 5844 5844 5844 5844 5844 5843 5843 5842 5841 5840 5839 5838 5837
5809 5810 5811 5813 5814 5815 5816 5817 5818 5819 5820 5821 5823 5824 5825 5826 5828 5829 5830 5832 5833 5834 5835 5837 5838 5838 5839 5840 5840 5840 5840 5841 5841 5841 5840 5840 5839 5839 5838 5837 5836 5835 5833
5802 5804 5805 5807 5808 5809 5810 5812 5813 5814 5815 5816 5817 5818 5819 5821 5823 5824 5825 5827 5828 5829 5831 5832 5833 5834 5835 5835 5836 5836 5836 5837 5837 5837 5837 5836 5836 5835 5834 5833 5832 5831 5830
5795 5797 5798 5800 5802 5803 5804 5806 5807 5808 5809 5810 5811 5812 5814 5816 5817 5819 5820 5822 5823 5824 5825 5827 5828 5829 5830 5831 5831 5832 5832 5833 5833 5833 5832 5832 5832 5831 5830 5829 5828 5827 5825
5787 5789 5791 5793 5795 5797 5798 5799 5801 5802 5803 5804 5805 5806 5808 5810 5812 5813 5815 5816 5817 5819 5820 5821 5822 5824 5825 5826 5827 5827 5828 5828 5828 5828 5828 5828 5827 5827 5826 5825 5824 5823 5821
5779 5781 5783 5785 5787 5789 5791 5792 5794 5796 5797 5798 5799 5800 5802 5804 5805 5807 5808 5810 5811 5813 5814 5815 5816 5818 5819 5820 5821 5822 5822 5823 5823 5823 5823 5823 5822 5822 5821 5820 5819 5818 5816
5771 5773 5775 5777 5779 5781 5783 5785 5787 5789 5790 5791 5792 5794 5796 5797 5799 5800 5802 5803 5805 5806 5808 5809 5811 5812 5813 5814 5815 5816 5817 5817 5818 5818 5818 5818 5817 5816 5816 5815 5814 5813 5811
5762 5764 5766 5768 5771 5773 5775 5777 5779 5781 5783 5784 5785 5787 5789 5791 5793 5794 5796 5797 5798 5800 5801 5803 5804 5806 5807 5808 5809 5810 5811 5811 5812 5812 5812 5812 5812 5811 5810 5809 5808 5807 5805
5752 5755 5757 5759 5762 5764 5767 5769 5771 5773 5775 5777 5778 5779 5781 5783 5786 5788 5789 5790 5792 5793 5795 5796 5798 5799 5800 5801 5802 5803 5804 5805 5805 5806 5806 5806 5805 5805 5804 5803 5802 5801 5799
5742 5744 5747 5749 5752 5755 5758 5760 5762 5764 5766 5768 5770 5771 5774 5776 5778 5780 5782 5783 5785 5786 5788 5789 5791 5792 5793 5795 5796 5796 5797 5798 5799 5799 5799 5799 5799 5798 5798 5797 5795 5794 5793
5731 5734 5736 5739 5742 5745 5748 5750 5753 5755 5758 5760 5761 5763 5765 5768 5770 5772 5774 5776 5777 5779 5780 5782 5783 5785 5786 5787 5788 5789 5790 5791 5791 5792 5792 5792 5792 5791 5791 5789 5788 5787 5785
5720 5723 5726 5728 5732 5735 5738 5740 5743 5745 5748 5751 5753 5755 5757 5760 5762 5764 5766 5768 5770 5771 5773 5774 5776 5777 5778 5780 5781 5782 5782 5783 5784 5784 5785 5784 5784 5784 5783 5782 5781 5779 5778
5708 5711 5714 5717 5720 5724 5727 5730 5733 5735 5738 5741 5744 5746 5749 5751 5753 5756 5758 5760 5761 5763 5765 5766 5767 5769 5770 5772 5773 5774 5775 5775 5776 5776 5777 5777 5777 5776 5775 5774 5773 5771 5769
5695 5698 5702 5705 5709 5712 5716 5719 5722 5725 5728 5730 5733 5737 5739 5742 5744 5747 5749 5751 5753 5755 5757 5758 5759 5761 5762 5763 5764 5765 5766 5767 5768 5768 5769 5769 5769 5768 5767 5766 5764 5762 5761
5684 5687 5690 5693 5697 5701 5704 5708 5711 5714 5717 5720 5723 5727 5729 5732 5735 5738 5740 5743 5745 5746 5748 5750 5752 5753 5754 5755 5756 5757 5758 5759 5759 5760 5760 5761 5760 5759 5758 5757 5755 5753 5751
5673 5677 5680 5682 5685 5689 5693 5696 5699 5702 5705 5709 5712 5716 5719 5722 5725 5729 5731 5734 5736 5738 5740 5742 5743 5745 5746 5747 5747 5748 5749 5750 5751 5751 5751 5752 5751 5750 5749 5748 5746 5744 5741
5663 5666 5669 5672 5674 5678 5681 5684 5688 5691 5695 5699 5702 5705 5709 5712 5715 5719 5722 5724 5727 5729 5731 5733 5735 5736 5737 5738 5739 5739 5740 5740 5740 5741 5742 5742 5741 5740 5739 5738 5736 5733 5731
5651 5655 5658 5661 5664 5667 5670 5674 5677 5680 5684 5688 5691 5694 5698 5702 5705 5709 5712 5715 5718 5720 5722 5724 5726 5727 5728 5729 5730 5730 5730 5730 5729 5730 5731 5732 5731 5731 5729 5727 5725 5723 5720
5640 5644 5647 5650 5653 5656 5660 5663 5667 5670 5674 5677 5680 5684 5688 5691 5695 5699 5702 5705 5708 5710 5713 5714 5716 5717 5719 5720 5720 5721 5720 5720 5720 5719 5720 5720 5720 5720 5719 5717 5714 5712 5710
Wind_Speed
12 12 12 11 11 10 9 9 9 9 8 7 7 7 6 6 5 5 5 5 5 4 4 4 4 3 3 3 3 3 3 4 4 5 5 6 6 7 7 8 8 9 9
14 14 14 14 13 12 11 11 11 10 10 9 9 9 8 7 7 7 7 6 6 5 5 5 5 4 4 4 4 4 5 5 5 6 6 7 7 8 8 9 9 10 11
17 16 16 16 15 15 14 13 13 13 12 11 11 11 10 9 9 8 8 8 8 7 7 6 6 6 6 6 6 6 6 6 7 7 8 8 8 8 9 10 11 11 12
18 18 18 18 18 17 16 15 15 15 14 14 13 13 12 11 11 10 10 10 10 9 8 8 7 7 7 7 8 8 8 8 9 9 10 10 10 10 10 11 12 12 13
20 19 19 19 20 19 18 17 17 17 17 16 15 14 14 13 13 12 12 12 11 11 10 10 9 9 9 9 9 9 10 10 10 11 11 11 11 11 11 12 13 14 14
22 22 22 21 21 21 21 20 20 20 19 18 17 16 16 15 15 14 14 13 13 13 12 12 12 11 11 11 11 11 11 12 12 12 12 13 13 13 13 14 14 15 16
25 25 24 24 23 23 23 22 21 21 21 20 20 19 18 17 17 16 16 15 15 15 14 14 14 13 13 13 13 13 14 14 14 14 14 15 15 16 16 16 16 16 17
27 27 26 26 25 25 25 25 24 23 23 23 22 22 21 20 19 18 18 17 17 17 16 16 15 15 15 15 14 15 16 16 16 16 16 16 17 17 18 18 18 18 18
28 28 29 28 28 27 26 26 25 25 24 24 24 23 23 23 22 20 20 19 19 19 18 18 18 17 17 17 16 17 17 17 17 17 18 18 18 19 19 20 20 19 19
31 30 30 30 29 28 28 27 27 27 26 25 25 24 24 24 24 23 22 22 21 21 21 21 20 20 19 19 19 19 19 19 19 19 19 20 20 20 20 21 21 21 21
34 33 31 31 31 30 29 28 28 28 27 27 27 26 25 25 25 25 25 24 24 24 24 24 23 22 22 21 21 20 20 20 20 21 21 21 21 21 22 22 22 22 22
35 35 34 33 32 32 31 30 30 29 29 29 28 28 27 26 26 27 27 27 26 26 25 25 25 25 24 23 23 23 22 22 22 22 22 22 23 23 23 23 24 24 24
38 37 36 36 35 34 33 33 32 31 30 30 29 29 29 28 28 27 27 28 28 26 26 26 26 26 26 25 25 25 24 24 23 23 23 23 24 24 25 25 26 26 26
40 39 38 38 37 36 35 34 33 32 31 31 31 30 30 30 29 28 28 28 29 28 28 27 27 26 27 27 27 26 26 26 25 25 25 25 25 26 26 27 27 28 28
42 41 40 40 39 38 36 36 35 34 33 32 32 31 31 31 30 29 29 28 29 30 30 29 28 28 28 28 29 29 28 27 27 27 27 27 27 28 28 28 29 29 30
43 42 42 42 41 40 38 37 37 36 35 34 34 33 32 31 32 31 30 30 30 30 30 30 30 30 30 30 30 30 30 30 29 29 29 28 29 29 29 30 30 30 31
43 43 43 43 41 40 40 39 38 37 37 35 35 35 34 33 33 33 33 32 32 32 31 31 32 32 31 31 31 31 31 31 31 31 30 30 30 30 31 31 31 32 32
44 44 43 43 42 42 41 41 40 39 39 37 36 36 36 35 35 35 35 34 34 34 33 33 33 33 32 33 32 32 32 33 33 32 32 32 32 31 32 32 33 33 34
45 45 44 43 43 42 42 42 42 41 41 40 38 38 38 37 37 37 37 36 35 35 35 34 34 34 34 34 34 34 33 34 34 34 34 33 33 32 33 33 34 35 35
47 46 45 44 44 44 43 43 43 42 42 42 41 39 39 38 38 38 37 37 36 37 36 35 35 34 34 34 35 35 35 35 35 35 35 35 34 34 34 35 35 36 37
46 46 47 45 45 45 44 44 44 44 43 43 43 42 40 39 40 40 39 39 38 38 37 36 35 34 34 34 34 35 36 36 36 36 37 36 36 36 36 37 37 38 39
46 46 46 45 45 45 45 44 43 44 44 45 45 44 43 41 41 41 40 39 38 38 36 36 36 36 35 35 35 36 36 37 37 38 38 38 38 39 39 39 39 40 41
45 45 45 44 45 45 45 45 44 43 43 44 44 45 46 45 43 42 41 41 40 38 38 37 37 37 36 36 36 37 38 38 38 38 38 39 39 40 40 40 41 42 42
44 44 44 43 44 44 45 44 44 43 43 43 44 45 45 46 45 43 42 41 40 39 39 39 39 38 38 37 38 38 39 40 41 40 40 40 41 41 42 43 43 42 43
44 45 45 44 44 44 44 43 43 43 42 42 43 44 44 44 43 44 43 43 42 41 41 40 39 39 39 38 39 39 40 41 41 42 41 41 42 43 43 44 44 44 44
44 45 45 46 44 43 43 43 44 44 43 42 42 42 43 44 44 44 44 43 43 42 42 41 40 40 40 39 40 40 41 42 43 43 42 42 43 43 44 44 45 45 45
Wind_Direction
247 246 246 249 250 249 246 243 242 238 239 239 242 247 250 252 252 249 250 251 254 257 254 249 251 261 264 281 298 307 318 327 321 317 323 327 327 328 330 331 333 333 332
250 248 247 249 251 250 248 246 246 244 244 244 245 247 250 252 253 252 251 250 251 251 252 255 254 260 264 272 283 295 304 309 319 313 313 318 320 321 322 323 325 325 324
253 251 249 249 251 251 250 249 248 248 248 248 248 249 251 252 252 252 251 250 251 251 252 255 259 263 267 269 278 288 297 302 308 311 314 316 315 315 317 319 320 321 321
253 253 253 251 251 251 251 251 250 249 249 249 250 250 251 253 254 254 253 251 250 250 251 255 261 265 266 268 274 281 289 294 300 306 308 312 310 309 311 314 317 318 319
253 254 255 254 254 253 253 253 253 252 251 251 252 251 251 253 254 254 254 253 251 250 251 254 259 264 267 270 274 279 285 290 295 301 302 304 305 306 307 308 311 314 316
253 255 256 256 257 256 256 255 255 255 253 252 252 252 253 254 254 255 255 254 252 250 251 254 258 263 267 271 274 277 282 287 292 295 296 299 302 305 306 307 308 311 313
253 254 255 256 257 257 257 256 255 255 254 253 252 252 252 255 256 256 255 253 251 250 252 254 258 262 265 269 273 276 281 284 288 290 293 296 298 301 303 305 307 308 310
252 253 254 255 256 255 255 256 256 255 254 254 253 252 252 253 254 255 254 252 251 252 252 255 258 262 266 268 272 276 280 283 285 287 290 294 296 297 300 302 305 306 307
254 254 253 254 254 254 255 257 257 256 256 256 255 254 252 251 252 252 252 252 252 252 253 256 258 262 266 269 272 276 281 283 284 286 288 290 293 294 298 301 302 303 305
253 253 253 252 253 254 254 255 256 256 256 256 256 255 253 252 251 251 252 253 254 255 255 256 258 262 265 268 272 275 280 283 283 285 287 289 291 293 296 298 301 300 302
251 252 252 251 252 253 253 255 256 256 255 257 256 254 252 252 253 253 253 254 254 255 256 258 259 261 264 267 271 274 278 282 284 284 286 288 290 291 294 296 299 297 299
250 251 251 251 251 252 252 254 255 255 255 256 256 253 251 252 253 254 255 255 254 255 257 258 260 261 263 266 270 272 276 279 282 284 285 287 289 290 291 294 295 296 297
249 250 251 251 251 250 251 253 254 255 254 255 255 253 252 253 254 254 254 254 253 254 256 258 260 262 264 266 269 271 274 276 279 282 284 286 288 288 290 292 293 295 295
249 249 250 250 251 251 251 251 253 253 254 254 254 253 253 253 254 252 253 254 254 254 256 258 260 262 264 266 268 270 272 273 276 279 282 285 287 288 289 291 293 295 296
249 249 249 250 251 252 252 250 251 251 252 253 253 252 252 251 251 252 252 253 256 256 257 258 259 262 264 266 268 269 270 272 274 276 279 283 285 287 289 290 292 294 296
249 249 249 249 249 250 251 250 250 250 250 251 252 252 251 250 250 251 253 254 256 258 258 258 259 262 264 266 267 268 269 271 274 276 279 282 284 286 288 290 291 293 295
248 249 249 248 248 249 250 250 249 249 249 250 252 253 251 250 250 251 253 255 257 258 259 259 260 261 264 266 268 269 270 271 273 275 277 280 283 285 287 289 291 292 294
248 249 249 248 248 249 250 250 249 249 249 250 251 252 250 249 250 252 253 255 257 258 259 260 260 262 263 265 267 269 270 271 273 275 277 279 282 285 287 288 290 291 292
248 249 250 249 248 248 249 250 250 249 249 250 251 251 250 249 250 251 253 255 257 258 259 260 260 262 263 265 266 268 270 271 272 274 276 279 281 285 287 288 290 290 291
247 248 248 248 248 247 249 250 250 250 250 250 249 249 249 249 250 252 254 256 258 259 258 259 260 262 264 265 266 268 270 271 272 274 276 278 281 283 286 287 289 290 291
247 248 249 249 248 248 248 250 250 250 250 250 248 247 248 250 251 252 254 256 257 258 258 259 261 263 265 267 268 269 270 271 272 273 275 277 280 282 285 287 288 289 291
246 247 249 249 248 248 248 249 250 250 250 250 248 247 247 249 250 251 253 254 256 257 258 259 261 264 266 268 269 269 270 271 272 274 275 277 279 282 284 286 287 289 291
246 246 248 249 247 247 247 247 248 249 249 249 248 248 247 247 249 250 251 253 255 256 258 260 262 264 266 268 269 271 272 273 274 274 276 277 279 281 283 286 287 288 290
245 245 247 248 247 246 247 247 248 249 249 249 248 247 246 246 247 249 251 253 255 256 258 260 262 264 266 268 270 272 274 275 275 276 275 277 279 281 282 284 286 288 289
245 245 247 248 247 246 247 247 248 248 249 249 248 247 246 247 247 249 251 253 254 256 257 260 262 263 265 268 270 273 276 276 277 277 276 277 279 280 282 284 285 288 290
244 244 246 247 246 246 247 247 247 247 247 247 247 248 248 248 249 249 251 252 253 255 258 260 262 263 266 268 271 273 276 277 277 278 278 278 279 280 282 284 285 287 288